Weather in Chornyi Kut

Ukraine / Odesa District     47°23′31″N   30°27′42″E
temp.,
°C
wind,
m/s
gust,
m/s
humid.,
%
clouds,
%
prec.,
mm/h
press.,
hPa
HPBL,
m
22 april, thu
thu2200:00+9sw226670 0.0 101712
03:00+10ssw3771100 0.0 1018160
06:00+9ssw367898 0.0 1018142
09:00+13s56635 0.0 1019509
12:00+17s564357 0.0 10192162
15:00+16s575199 0.0 1018724
18:00+14sse79635 0.0 1018435
21:00+11sse6127743 0.0 1018286
23 april, fri
fri2300:00+11s51377100 0.0 1017326
03:00+9s4118467 0.1 1017260
06:00+8s510908 0.3 1016219
09:00+12wsw4575100 0.3 1017438
12:00+14nw3367100 0.1 1017967
15:00+11n6575100 1.5 1016700
18:00+7nnw7983100 2.8 1018812
21:00+6nnw358913 4.0 1019341
24 april, sat
sat2400:00+4w35925 0.0 1020103
03:00+4wnw38890 0.0 1019147
06:00+3wnw36820 0.0 1020104
09:00+8wnw711645 0.0 1021963
12:00+8nw8114785 0.0 10221717
15:00+11wnw8113255 0.0 10222491
18:00+10nw710405 0.0 10222519
21:00+6nw22520 0.0 102321
25 april, sun
sun2500:00+4w22585 0.0 102411
03:00+4wsw22626 0.0 102415
06:00+3sw22605 0.0 102312
09:00+9sw35465 0.0 1022407
12:00+13ssw674013 0.0 10211816
15:00+13sw8950100 0.0 10191936
18:00+12sw566371 1.5 1018745
21:00+8sw4783100 2.5 1019169
26 april, mon
mon2600:00+6nnw7883100 0.8 1021711
03:00+5w258282 0.9 1020321
06:00+2nw47810 0.0 1021154
09:00+7nw46550 0.0 1021771
12:00+10wnw584091 0.0 10212349
15:00+12wnw71036100 0.0 10192678
18:00+11nw694377 0.0 10192228
21:00+7nnw3454100 0.0 102068